GFSFLT1_prec_cloud_003.txt.gz
Cloud_Cover
74 75 44 27 30 53 70 84 87 58 100 100 70 100 100 100 100 100 100 100 100 100 100 99 72 89 90 9 25 8 1 2
70 48 67 56 53 25 72 41 82 22 19 4 58 100 99 19 17 5 3 1 4 5 44 5 5 5 1 5 5 5 7 8
46 69 75 34 49 93 59 41 9 9 64 0 0 0 0 0 0 0 0 0 2 0 0 0 0 4 6 27 7 7 5 2
37 28 20 26 14 4 3 3 63 5 1 1 0 0 0 0 0 0 0 0 0 0 0 5 5 9 19 17 5 0 0 0
2 5 15 86 93 5 16 32 34 1 4 0 0 0 0 0 0 0 0 0 0 0 5 5 5 5 1 0 0 0 0 0
6 5 5 5 92 30 44 5 38 0 0 0 0 0 0 0 0 0 0 0 3 5 5 5 5 0 0 0 0 0 9 8
63 5 5 7 82 52 0 5 5 5 5 5 4 1 2 3 5 0 2 3 0 0 0 0 0 1 3 58 8 63 31 5
86 23 28 90 7 1 0 5 5 5 5 5 5 5 5 5 4 0 0 0 0 0 2 3 5 6 79 99 100 5 53 88
27 99 100 8 1 5 5 5 5 5 5 5 5 5 5 5 2 1 2 3 5 5 5 13 10 5 21 96 19 76 5 27
15 75 0 0 0 5 5 5 7 13 64 9 30 49 39 52 7 5 5 5 5 56 75 7 11 99 51 97 17 0 0 1
2 0 2 0 3 5 5 19 67 46 31 80 96 95 44 5 5 5 26 63 67 6 5 52 100 28 5 0 0 4 0 3
1 2 5 5 12 45 5 82 100 5 84 100 58 5 5 10 36 70 56 74 6 5 47 97 5 9 50 5 5 4 5 0
4 5 48 81 98 69 97 94 5 77 99 100 40 61 91 100 99 30 6 4 5 5 70 39 40 78 6 94 6 5 0 0
9 81 97 83 81 100 100 10 96 100 48 99 95 99 72 7 5 5 5 5 5 5 7 50 82 75 96 56 5 5 2 0
36 94 100 100 100 84 97 82 35 5 24 20 6 20 5 5 5 5 28 52 18 5 48 80 42 59 17 9 11 5 3 0
98 60 99 82 95 56 5 5 5 5 5 5 5 5 26 34 56 96 100 50 25 5 53 5 14 70 91 29 5 5 5 5
40 88 96 93 5 5 5 5 5 5 10 8 15 46 97 100 100 100 61 52 5 5 7 7 99 100 99 7 63 5 0 0
43 86 98 72 5 9 13 5 25 50 67 85 99 100 100 100 98 93 64 4 5 5 5 5 27 17 72 100 10 1 1 5
38 98 100 52 42 78 24 74 63 96 100 100 100 100 97 86 40 22 4 0 3 5 84 18 65 7 23 2 4 0 0 5

GFSFLT1_prec_cloud_006.txt.gz
Cloud_Cover
20 75 99 98 95 99 52 44 98 44 25 51 97 100 99 74 60 5 12 88 100 99 10 5 16 6 0 0 2 4 5 5
98 75 65 59 54 56 62 55 17 5 11 16 12 8 3 5 5 0 0 0 0 0 0 0 0 0 0 4 5 5 5 4
40 31 39 35 5 5 7 46 21 5 5 5 5 4 0 0 0 0 0 0 0 0 0 0 0 0 5 5 5 5 5 5
18 30 15 26 76 67 60 5 5 6 73 0 0 0 0 0 2 2 0 0 0 0 0 0 0 5 5 0 3 5 5 5
51 50 36 22 5 5 5 45 17 6 0 0 0 5 3 5 5 5 5 4 0 0 0 0 0 0 0 1 5 5 2 0
5 6 100 5 5 7 77 56 10 0 5 5 5 5 5 5 5 5 5 5 5 0 0 0 0 0 1 0 0 2 5 5
5 5 20 90 5 5 7 0 0 5 5 5 5 5 5 22 5 5 5 5 1 0 0 0 0 0 1 16 5 18 20 100
5 40 53 5 5 5 1 5 5 5 5 12 43 6 22 8 5 5 2 0 0 0 0 3 13 38 69 58 75 45 61 86
3 5 5 5 5 7 4 5 5 5 5 15 100 39 5 8 58 40 0 5 5 5 42 48 8 84 76 87 100 99 97 94
3 5 5 5 3 4 4 5 9 33 44 93 100 10 7 76 7 5 5 9 27 8 10 28 100 100 94 100 89 97 98 41
5 5 5 2 5 5 7 70 100 100 100 78 5 7 76 5 8 42 23 30 5 12 34 74 48 66 99 98 98 100 92 98
5 3 4 5 5 63 100 100 100 82 79 87 41 18 38 10 5 5 5 5 5 5 5 5 41 93 100 60 96 100 100 100
5 5 27 96 99 100 100 100 86 86 100 74 30 16 5 5 5 5 5 23 32 5 5 5 83 94 85 53 100 100 100 100
5 58 100 100 100 100 100 87 99 100 5 17 23 5 5 5 5 13 53 65 46 5 5 45 23 91 44 99 100 66 99 60
92 100 86 100 99 84 83 79 99 8 5 9 62 57 19 5 24 33 76 85 16 12 85 76 40 5 15 88 69 79 38 62
100 50 5 24 99 98 81 100 32 29 20 97 82 36 24 93 94 99 100 32 5 89 24 5 8 24 95 100 100 99 97 37
76 100 96 11 93 100 100 91 82 99 74 100 93 42 93 78 100 100 71 7 13 92 96 52 94 53 8 6 74 90 42 5
86 100 49 68 100 100 100 79 76 81 100 100 46 76 99 100 100 71 19 50 27 87 95 64 52 69 5 5 1 0 4 0
100 100 100 100 100 100 100 100 100 100 100 98 89 100 100 100 98 22 17 5 16 78 98 28 20 5 4 3 5 5 0 0

GFSFLT1_prec_cloud_009.txt.gz
Cloud_Cover
93 75 95 89 56 40 49 64 72 98 25 7 23 62 74 62 68 71 10 3 0 0 0 0 0 0 0 1 0 0 1 4
37 20 29 38 26 16 16 8 49 80 47 17 36 100 64 10 5 0 0 0 0 0 0 0 0 0 0 0 5 5 5 0
31 29 13 22 60 88 80 61 83 90 89 36 5 2 0 0 0 0 0 5 2 0 0 0 0 0 0 1 5 5 5 0
5 5 11 61 59 81 93 42 8 54 64 19 0 0 0 1 2 2 3 0 2 3 0 0 0 0 4 0 5 5 5 5
18 51 96 100 100 31 5 5 5 5 4 0 0 9 22 3 5 5 5 5 5 5 4 0 0 2 2 4 5 4 5 5
10 72 88 28 5 5 6 5 5 5 0 0 0 4 5 6 5 5 5 5 5 5 0 0 0 0 4 5 5 5 5 6
29 13 3 5 5 5 5 5 5 0 0 0 3 5 12 98 64 16 5 5 4 0 0 0 0 0 5 5 81 47 94 92
0 0 3 5 5 5 5 5 0 1 3 5 5 5 97 62 100 13 5 5 2 0 0 2 1 5 6 5 22 100 95 100
0 0 0 0 5 5 5 5 5 0 0 5 5 52 93 99 9 5 5 5 5 5 4 5 5 70 49 18 14 32 94 87
0 0 0 1 5 5 5 5 3 5 5 5 56 67 100 86 6 5 5 5 5 5 5 5 28 68 18 11 22 26 100 46
0 5 5 5 5 5 5 5 28 50 25 13 7 98 98 77 21 5 5 5 5 5 21 74 22 100 36 30 99 62 100 99
5 5 5 5 5 5 5 5 11 5 94 7 51 98 99 5 5 5 5 5 5 15 69 82 28 78 99 79 92 24 99 91
5 5 5 5 19 63 40 5 5 56 90 44 88 100 7 13 6 11 48 8 40 98 100 99 78 99 81 49 86 70 41 100
5 5 5 100 96 5 5 15 38 78 85 86 99 67 22 14 27 95 26 30 100 100 100 91 100 100 95 96 93 95 100 99
5 5 94 100 5 11 62 62 78 94 84 99 68 80 22 58 97 64 58 100 100 100 100 89 51 94 100 98 100 100 93 99
5 67 100 24 5 71 86 98 95 100 100 100 100 79 100 100 99 100 100 100 100 100 100 83 69 100 92 9 13 22 99 97
22 96 27 5 23 46 100 100 100 100 100 100 100 100 100 100 100 100 100 100 58 40 100 100 87 100 30 5 0 0 4 5
30 5 10 53 51 99 84 100 100 100 100 100 100 100 100 100 100 99 33 5 8 98 100 92 96 78 5 0 0 3 5 30
5 30 10 30 52 88 74 99 70 99 100 100 100 100 100 100 100 78 85 75 89 100 96 92 83 64 5 0 4 5 14 47

GFSFLT1_prec_cloud_012.txt.gz
Cloud_Cover
100 100 90 8 73 99 100 100 100 100 98 100 99 96 100 100 95 99 87 19 6 2 0 0 0 0 0 0 0 0 0 4
100 100 86 33 24 5 6 8 81 68 80 100 100 77 66 38 44 30 4 1 0 0 0 0 0 0 0 0 0 0 0 0
5 5 5 5 6 51 24 16 18 46 83 6 5 5 6 4 0 0 0 0 0 0 0 0 0 0 0 0 0 0 0 5
5 5 21 65 100 100 49 100 5 23 5 5 5 0 0 0 0 0 0 3 4 2 0 0 0 0 0 0 0 0 5 5
4 2 16 35 100 100 52 94 25 5 5 5 1 0 0 0 0 4 4 5 5 5 4 0 0 0 0 0 0 0 2 5
5 5 100 100 100 100 100 31 5 5 5 5 0 0 0 0 4 5 5 8 41 34 5 0 0 0 0 0 2 5 5 5
11 12 41 26 89 28 11 0 5 5 5 2 0 0 0 0 5 21 90 14 5 5 5 5 5 5 5 3 5 5 5 22
37 83 65 100 70 0 0 0 4 5 5 3 5 5 5 5 5 5 56 100 42 5 5 5 5 5 5 5 5 5 5 5
25 78 82 14 0 0 0 0 5 5 18 78 48 6 5 5 9 36 94 100 73 5 5 5 5 5 8 50 5 5 42 10
0 25 0 0 0 0 0 0 15 100 100 11 5 5 8 8 93 96 100 27 6 5 5 5 6 5 5 5 24 12 9 66
0 0 0 0 5 5 4 5 52 100 78 5 5 24 77 74 92 90 100 65 5 5 5 15 5 5 56 57 9 99 89 11
0 0 0 0 0 1 5 7 100 100 8 5 5 62 85 91 97 100 94 5 5 5 5 5 14 82 87 6 14 36 69 24
0 0 3 5 5 5 29 100 94 6 5 5 41 88 100 100 45 59 5 5 5 8 6 5 81 69 92 5 3 5 18 44
0 5 5 2 2 1 45 5 5 5 5 77 90 82 100 82 100 65 5 8 86 50 5 5 92 16 5 5 8 92 64 99
2 4 5 5 5 29 5 5 5 5 5 84 100 98 100 100 41 76 40 58 81 60 35 25 57 75 6 20 59 90 49 28
5 5 81 92 94 7 5 5 5 5 56 100 100 100 93 100 90 63 80 100 94 65 91 94 98 97 100 98 100 100 92 3
5 5 5 5 5 5 12 17 5 5 75 100 100 99 100 67 100 95 100 82 100 98 100 100 100 100 100 100 100 100 100 5
5 5 21 31 5 5 5 5 5 5 61 100 100 96 98 100 100 100 100 100 100 100 100 100 100 100 100 100 100 100 3 5
25 99 37 5 4 4 5 5 5 3 97 100 90 100 95 100 100 100 100 100 99 100 100 100 100 100 100 100 100 20 2 4

GFSFLT1_prec_cloud_015.txt.gz
Cloud_Cover
28 50 86 38 87 55 10 29 100 100 100 100 100 100 96 99 94 91 100 95 100 89 70 29 5 5 4 0 0 0 0 0
80 8 63 79 100 100 100 69 85 45 36 100 100 100 100 100 100 100 100 65 5 3 5 5 1 0 0 0 0 0 0 0
28 47 35 24 80 100 92 5 12 68 62 34 32 17 18 54 25 14 7 5 4 0 0 1 0 0 0 0 0 0 0 0
6 5 4 5 4 10 26 13 26 39 92 18 6 15 5 4 1 0 0 0 2 1 4 0 0 0 0 0 0 0 0 0
0 2 5 5 2 2 5 4 70 14 83 18 6 2 0 0 0 0 0 1 5 5 5 5 2 0 0 0 0 0 0 0
0 0 0 2 73 100 100 100 100 36 0 5 5 5 2 0 0 0 0 5 5 5 5 89 63 2 0 0 0 0 1 4
92 4 4 1 99 100 100 100 100 7 3 4 5 5 5 2 0 2 5 5 5 5 7 61 2 2 1 0 0 1 5 9
29 0 0 0 24 98 100 100 86 1 0 4 5 5 5 5 4 5 5 6 5 5 5 29 5 5 4 1 0 0 1 0
45 0 4 100 29 1 58 59 0 2 5 5 32 79 100 77 56 92 71 74 20 51 46 58 1 0 0 2 0 3 0 3
7 100 99 100 4 55 15 0 0 1 5 5 97 100 59 7 97 56 5 29 94 55 5 5 5 5 3 5 5 5 4 5
2 2 0 8 47 44 75 10 0 0 5 19 95 40 43 48 81 80 91 87 84 23 100 100 5 12 62 50 5 6 93 83
0 0 0 0 0 0 0 0 0 0 5 15 17 22 97 75 62 100 81 99 77 100 83 13 35 94 97 99 86 88 94 32
0 0 0 0 0 0 4 0 13 100 92 5 13 98 100 98 77 100 100 100 100 100 60 100 92 99 100 100 82 59 42 99
0 0 0 2 5 5 5 5 5 5 5 40 56 96 100 100 99 100 94 100 99 100 100 97 91 86 100 91 69 100 100 100
4 5 5 5 6 8 44 11 74 5 9 0 3 95 100 100 100 98 90 84 99 100 100 100 100 100 100 100 100 86 100 98
1 5 19 80 70 64 15 90 6 1 5 22 70 100 66 87 100 100 82 62 94 100 82 100 100 100 100 100 100 100 100 100
5 5 5 5 34 68 96 66 5 5 22 96 100 97 97 85 76 87 100 100 100 100 100 100 100 100 100 100 100 100 100 100
66 100 53 6 73 20 5 5 5 5 80 100 92 29 23 11 84 100 100 100 100 100 100 98 97 100 100 100 100 100 100 100
18 17 75 98 9 5 5 5 5 26 96 100 100 89 96 92 100 100 100 100 100 100 100 100 100 100 100 100 100 100 100 52

GFSFLT1_prec_cloud_018.txt.gz
Cloud_Cover
94 30 100 100 100 100 100 100 100 100 100 100 100 98 100 100 100 100 100 100 100 100 94 86 68 75 54 13 5 5 3 0
100 100 81 100 47 14 2 0 1 12 40 45 74 100 82 52 88 93 72 81 85 97 62 5 5 5 18 4 0 0 0 0
71 21 6 36 7 5 53 18 5 5 5 98 92 14 5 5 13 48 62 27 6 5 5 5 5 4 1 30 13 4 0 0
9 43 37 5 5 5 38 36 18 5 5 5 17 44 32 47 29 10 5 5 3 2 0 3 0 1 5 41 0 0 0 0
98 98 87 4 0 0 0 5 78 21 3 5 5 5 5 5 5 0 0 0 4 4 5 5 5 3 5 5 2 0 0 0
5 32 11 1 0 0 0 2 4 23 53 4 1 5 3 5 5 3 0 3 5 5 5 5 5 5 0 0 0 0 0 4
99 44 4 5 2 1 96 99 100 100 100 7 3 5 5 57 100 30 12 18 67 83 68 78 27 62 55 3 2 1 0 0
12 2 1 3 4 33 5 6 98 100 100 96 3 5 18 85 99 91 10 16 76 100 97 75 97 90 32 71 29 5 1 5
13 46 5 0 3 6 0 0 97 100 100 94 78 23 66 86 83 68 80 99 95 12 100 93 49 68 6 98 10 70 9 5
6 26 5 53 56 5 0 5 5 96 100 47 85 93 99 89 91 97 100 85 99 100 84 82 99 90 6 5 15 5 5 5
2 4 4 5 1 0 1 27 64 27 12 20 71 83 98 100 69 85 98 90 96 54 70 87 100 100 97 44 6 5 5 9
0 6 10 5 5 5 4 20 19 39 4 9 17 95 100 100 100 100 100 79 32 93 68 99 93 100 100 75 95 67 90 93
3 5 5 5 5 5 5 5 4 5 5 5 49 86 100 62 78 84 73 98 70 97 99 100 95 100 100 97 54 59 36 66
4 0 1 5 5 5 3 18 23 5 7 75 100 100 78 51 90 76 38 17 77 76 99 96 99 100 100 99 80 48 77 100
0 3 5 5 14 16 70 76 87 100 83 52 100 43 98 100 100 49 42 26 17 70 98 100 100 100 100 100 100 59 58 87
3 5 8 5 6 8 23 63 90 70 32 46 24 100 100 100 100 100 17 8 80 94 100 100 88 80 100 100 100 100 100 100
1 0 3 5 5 5 14 25 65 6 25 9 100 100 100 100 100 99 50 23 99 100 100 85 100 100 100 100 100 100 100 100
5 5 4 0 0 0 0 5 5 5 5 33 100 100 100 100 94 64 68 96 100 100 100 100 97 100 100 100 100 100 100 100
5 0 5 5 5 5 5 15 5 5 5 56 100 100 100 96 90 94 100 100 100 100 100 100 100 100 100 100 100 100 100 65

GFSFLT1_prec_cloud_021.txt.gz
Cloud_Cover
100 100 100 100 100 100 100 100 100 100 100 100 100 100 100 100 100 100 100 100 100 100 100 100 100 95 36 15 49 54 24 3
100 100 100 100 100 100 100 100 100 100 100 100 100 100 100 100 100 100 100 100 39 97 98 22 5 6 36 25 2 0 0 0
81 100 100 100 100 100 100 100 100 100 100 98 97 93 88 14 20 24 5 12 29 6 5 5 5 2 0 0 0 0 0 0
7 78 100 100 100 100 38 13 7 13 5 4 5 5 5 5 24 67 36 5 5 4 1 0 0 0 4 1 2 3 12 5
5 5 30 70 14 54 92 40 14 5 5 4 5 5 5 49 86 72 81 5 5 5 5 5 5 5 12 68 92 69 17 5
27 5 5 85 69 12 35 33 3 0 8 6 6 22 5 32 97 96 43 5 5 5 5 5 5 5 52 66 71 90 27 5
79 8 17 32 6 0 1 2 2 100 100 100 69 5 11 5 75 47 5 9 83 14 5 5 5 97 99 91 33 17 60 88
5 5 9 35 97 11 11 5 19 12 24 9 100 99 60 6 5 53 8 80 88 29 5 78 72 100 98 91 13 83 99 91
85 5 68 100 100 100 100 5 99 23 35 96 100 100 100 99 100 100 100 89 51 92 94 100 100 100 97 100 82 91 91 97
7 5 96 96 100 100 75 100 100 81 59 22 44 92 96 98 47 99 100 99 90 100 100 100 80 100 100 100 100 100 80 73
88 95 25 8 9 5 1 12 0 24 14 5 13 8 25 88 100 100 100 88 100 100 100 100 100 97 93 96 100 92 50 46
4 4 0 0 0 0 0 0 0 0 6 18 6 13 61 85 99 64 100 100 100 100 100 100 100 100 100 99 63 33 89 95
0 0 0 0 3 5 5 1 3 5 35 5 12 78 17 89 73 100 100 100 100 100 100 100 100 100 100 100 100 99 18 33
2 0 0 5 4 0 0 5 5 9 6 100 100 73 49 66 100 100 100 100 100 100 100 100 94 98 100 95 75 23 5 8
0 4 5 15 84 22 52 41 41 56 99 96 100 64 66 85 98 100 100 100 100 100 100 100 100 78 89 90 78 87 84 61
69 69 97 100 93 47 35 44 16 17 76 100 66 69 16 56 99 100 100 100 100 100 100 100 100 100 99 68 99 100 100 100
4 4 5 5 7 38 95 55 92 100 100 36 21 5 40 100 100 100 100 100 100 100 100 100 100 100 92 100 90 93 100 98
0 1 2 5 5 5 12 66 72 62 10 5 38 5 45 44 85 92 100 100 100 100 100 100 100 100 100 100 100 100 100 100
5 5 9 49 51 5 5 3 3 5 5 5 5 97 100 100 98 99 84 100 100 100 100 100 100 100 100 100 100 100 100 97

GFSFLT1_prec_cloud_024.txt.gz
Cloud_Cover
100 100 100 95 63 84 100 74 96 75 18 80 100 100 100 100 100 78 96 100 100 100 100 100 76 100 86 96 72 32 7 2
100 100 100 100 100 100 87 36 100 100 100 100 100 96 33 59 100 100 76 100 89 100 100 90 35 48 5 17 11 0 0 1
100 100 100 99 100 100 100 100 96 100 100 100 97 100 100 100 100 92 88 66 30 54 15 26 22 5 6 0 5 5 5 5
100 100 100 100 100 100 100 100 100 100 100 100 100 82 55 82 42 9 40 6 5 16 72 14 3 0 2 5 60 80 94 25
100 100 100 100 99 100 100 100 100 99 61 41 23 24 49 7 5 5 5 12 40 10 5 5 5 14 5 90 97 100 95 5
8 56 96 76 55 83 49 17 78 99 21 16 93 70 5 44 49 20 96 75 60 5 7 5 59 52 41 100 100 100 93 20
40 5 5 5 5 17 18 67 93 25 7 100 100 5 10 46 12 5 82 79 94 49 5 8 91 100 100 56 95 53 74 15
5 5 5 5 5 5 5 5 29 7 87 100 100 40 45 98 100 89 46 94 97 100 91 76 100 100 95 90 100 96 23 5
5 6 42 76 22 20 72 88 56 46 97 100 100 100 97 100 100 100 100 99 100 66 99 74 99 98 17 100 100 79 51 33
50 14 5 32 100 100 100 100 89 5 18 83 68 54 30 45 96 98 83 59 92 100 77 97 100 56 100 37 72 95 79 5
5 5 4 5 5 18 83 89 35 4 5 93 100 100 99 99 71 49 92 100 96 100 100 100 100 100 100 100 100 89 20 6
5 5 6 8 5 5 2 2 2 5 37 100 100 100 76 89 97 100 69 89 100 100 100 100 100 100 100 100 98 76 40 15
5 70 56 2 0 0 0 3 61 98 100 91 90 78 99 100 97 100 100 100 100 100 100 81 100 100 100 100 98 86 12 14
5 3 0 0 0 0 61 100 100 99 88 21 19 98 100 95 100 100 100 92 100 100 62 85 100 99 100 100 90 74 79 70
0 0 5 5 5 53 100 94 36 3 3 5 5 8 6 44 95 100 98 86 92 87 100 92 100 95 100 100 100 100 98 97
0 4 5 2 2 42 5 8 5 5 5 5 5 11 25 100 88 97 97 90 91 100 80 70 99 100 100 99 100 100 100 100
3 2 0 0 5 5 5 2 5 46 41 60 97 66 56 100 89 100 100 100 100 100 100 97 100 100 100 100 100 100 100 79
0 0 4 5 4 5 5 12 48 67 83 60 51 66 47 94 87 94 100 100 100 100 100 100 100 100 100 100 100 100 100 100
5 5 5 5 5 5 5 10 26 41 90 93 32 8 49 84 100 100 100 99 94 100 100 100 100 100 100 100 100 100 100 38

GFSFLT1_prec_cloud_027.txt.gz
Cloud_Cover
100 100 100 100 100 100 100 100 100 100 100 100 100 100 100 100 100 100 100 100 100 100 100 100 100 30 3 58 86 79 26 18
100 100 100 100 100 100 100 43 74 100 100 100 100 100 100 100 100 100 45 98 78 40 10 4 4 20 25 17 50 5 5 3
100 100 100 100 75 96 100 99 100 100 100 100 100 98 100 98 87 100 100 94 100 90 66 54 5 5 5 5 5 4 5 5
100 100 100 100 100 100 71 38 34 32 12 57 100 89 100 100 100 49 38 35 56 80 27 5 5 5 5 5 51 83 86 52
83 81 100 100 100 100 100 100 100 100 100 100 100 100 100 100 86 21 25 5 17 5 5 38 5 5 5 27 46 100 97 86
84 99 100 100 100 100 100 100 100 84 54 25 17 32 64 100 72 100 100 82 79 99 63 50 6 74 81 94 100 100 100 98
92 56 28 14 32 54 49 40 39 17 13 91 100 90 100 100 91 100 95 100 85 51 80 81 82 62 70 71 33 72 94 61
23 5 50 74 68 51 11 5 67 5 96 100 100 100 100 100 100 100 100 100 85 100 100 100 80 98 100 93 70 60 75 5
5 6 6 5 5 5 8 28 98 96 74 100 94 100 100 100 100 100 98 100 100 100 100 99 98 100 100 100 88 95 33 5
19 6 5 5 5 6 98 100 100 93 100 52 62 12 100 100 100 100 100 100 100 100 88 99 100 100 100 99 100 62 6 8
100 94 23 4 0 59 100 100 75 31 36 6 30 100 100 100 100 100 100 96 100 100 97 100 100 100 78 39 79 69 87 99
100 42 5 1 5 5 46 68 17 4 14 63 100 100 100 100 100 91 100 100 100 100 99 100 99 60 94 65 70 100 100 94
57 5 5 5 5 51 73 7 5 35 100 100 100 100 100 100 100 99 100 100 100 100 100 34 44 96 87 100 89 100 100 100
5 5 5 6 76 32 5 5 31 100 100 100 100 86 63 53 60 96 97 97 100 100 100 100 100 89 97 100 100 100 76 59
5 5 5 12 2 5 5 5 5 21 74 80 49 5 8 50 57 20 42 73 99 100 100 100 100 100 100 100 100 100 97 98
4 5 3 0 5 5 5 5 5 5 5 5 5 5 7 16 6 58 100 100 100 100 100 100 98 100 100 100 99 100 100 100
0 0 0 5 6 14 5 5 6 5 5 5 5 5 5 72 100 100 100 100 100 100 100 93 98 98 100 100 100 74 100 100
1 4 4 1 5 5 5 5 5 5 5 6 41 51 39 51 100 100 100 100 100 100 100 100 100 100 100 99 100 95 100 100
5 2 0 0 0 5 2 1 5 5 26 39 23 10 80 76 96 95 100 97 100 100 100 100 100 100 100 100 100 100 97 100

GFSFLT1_prec_cloud_030.txt.gz
Cloud_Cover
100 100 100 100 100 100 100 100 100 100 100 100 100 100 100 100 100 100 100 100 100 100 100 100 100 99 99 30 17 8 2 3
100 100 100 100 100 100 100 100 91 100 100 100 100 100 100 100 100 100 100 100 100 100 100 100 100 99 5 5 5 4 0 5
100 100 88 100 100 100 100 100 100 95 100 100 100 100 100 100 100 100 100 100 100 100 98 82 5 2 5 5 7 5 5 5
51 100 32 99 100 100 70 18 16 28 87 73 74 94 100 100 100 100 100 100 100 52 6 5 5 5 5 8 15 5 34 30
100 100 81 38 100 64 97 100 88 16 5 7 68 42 62 9 95 100 67 34 19 6 6 12 54 51 95 100 77 68 97 55
73 100 98 100 100 97 100 100 100 98 100 100 100 100 100 61 64 98 72 78 89 76 48 100 100 100 92 99 67 100 44 70
61 64 71 30 25 32 6 23 64 56 39 16 93 83 89 52 48 100 100 63 96 100 100 100 82 96 91 94 100 100 100 75
100 100 100 24 5 5 5 98 100 99 72 13 26 90 97 100 100 100 100 100 100 100 100 99 100 100 100 100 100 100 100 99
54 40 48 13 24 24 5 96 100 84 14 67 95 100 45 100 100 100 100 100 100 100 100 100 100 100 100 100 100 100 99 46
100 41 5 5 5 88 42 75 100 92 100 86 48 99 100 100 100 100 100 100 100 100 100 100 100 100 100 100 100 100 90 79
99 44 10 21 28 6 5 5 84 100 100 80 74 75 97 100 100 100 100 100 100 94 100 100 100 100 100 100 100 75 100 65
99 99 100 5 5 4 2 0 70 100 100 48 86 100 99 100 100 100 100 100 100 100 100 100 100 100 100 100 100 100 100 100
100 100 100 65 58 4 1 0 5 99 100 19 62 100 100 100 100 100 100 100 100 100 100 100 100 100 100 100 100 94 100 100
100 100 100 100 100 51 6 4 5 16 5 4 46 97 100 100 100 100 100 100 100 100 100 100 100 100 100 99 100 100 100 98
97 100 100 100 100 85 93 54 14 5 34 5 21 56 78 92 97 100 100 91 100 100 100 100 100 100 97 86 89 100 100 87
100 57 63 98 51 26 19 7 5 85 38 5 9 39 51 50 52 70 74 94 100 100 100 100 100 100 100 100 100 100 100 100
10 5 68 80 8 5 5 0 5 5 20 28 5 5 5 5 5 12 99 100 100 100 100 100 100 100 100 100 100 100 100 100
51 5 5 5 6 5 5 3 5 5 77 63 30 25 10 5 29 59 55 95 100 100 100 100 100 98 91 100 100 100 100 100
9 5 17 5 10 5 1 0 2 28 48 71 54 14 5 6 10 70 100 100 98 84 78 98 100 100 97 100 100 100 100 98

GFSFLT1_prec_cloud_033.txt.gz
Cloud_Cover
100 100 100 100 100 100 100 100 100 100 100 100 100 100 100 100 100 100 100 100 100 100 100 100 100 100 100 83 73 98 100 93
100 100 100 100 100 100 100 100 100 77 100 100 100 100 100 100 100 100 100 100 100 100 100 100 100 100 100 100 36 42 100 55
100 100 100 100 100 98 96 100 100 100 100 100 100 100 100 100 100 100 100 100 100 100 100 100 82 100 100 100 88 6 6 22
100 100 100 100 100 100 98 100 100 100 100 100 100 92 100 100 100 100 100 100 100 100 97 100 100 100 74 86 56 100 100 62
91 92 66 100 100 100 100 100 100 42 8 12 13 15 77 100 100 100 100 100 96 100 100 98 7 38 100 100 100 100 69 33
97 10 100 93 100 94 65 100 100 99 98 99 100 77 86 20 18 56 69 94 100 100 78 58 86 100 100 100 100 100 100 98
64 98 30 100 100 100 92 29 5 5 5 3 16 5 25 34 65 63 100 100 100 100 100 100 99 100 98 97 100 99 99 100
97 8 12 78 82 5 5 5 5 15 5 6 5 5 7 63 90 78 88 92 97 100 100 100 100 100 100 100 100 100 100 100
85 100 96 77 24 5 5 5 8 25 85 16 15 12 100 99 86 100 100 100 100 100 100 100 100 100 100 100 100 100 100 100
100 100 100 14 5 5 5 40 94 46 40 97 100 81 74 100 100 100 100 100 100 100 100 76 100 100 100 100 100 100 100 100
70 72 38 89 14 5 62 76 68 5 7 66 100 99 74 73 95 100 100 100 100 100 90 100 100 100 100 100 100 100 100 100
5 5 36 62 62 100 61 35 92 32 41 80 98 97 100 100 100 100 99 100 100 100 100 100 100 100 100 100 100 100 100 100
5 5 5 54 100 100 99 76 12 29 52 46 100 100 100 100 100 100 100 100 100 100 100 100 100 100 100 100 100 100 100 100
5 5 5 11 91 100 95 94 62 14 26 71 100 100 100 100 100 100 100 100 100 100 100 100 100 100 100 100 100 100 100 100
5 5 3 5 95 100 100 100 100 34 56 39 76 100 100 100 100 100 100 100 100 100 100 100 100 100 100 100 100 80 100 100
1 2 85 49 100 100 100 55 27 12 26 47 94 100 100 100 100 100 100 100 99 79 100 100 100 100 100 100 100 100 100 100
5 4 5 76 74 41 37 61 52 62 5 6 5 13 14 50 51 41 48 59 81 100 93 100 89 100 100 100 100 97 93 100
12 6 5 5 3 8 34 31 91 87 9 5 5 5 57 84 87 87 81 82 50 100 100 100 98 100 100 88 99 100 100 100
13 61 47 7 83 100 100 34 5 5 5 5 5 5 5 5 5 5 10 68 98 98 100 100 98 95 98 74 100 100 100 100

GFSFLT1_prec_cloud_039.txt.gz
Cloud_Cover
100 100 100 100 100 100 100 98 100 100 100 100 100 99 86 100 100 100 100 100 100 100 100 100 100 100 100 100 100 100 100 100
100 100 100 38 74 100 77 99 100 100 100 100 100 87 56 77 100 100 100 100 100 100 97 35 97 100 100 100 100 100 100 100
94 94 100 100 96 44 94 80 67 90 42 58 92 70 71 73 99 100 100 100 100 100 100 100 100 100 100 100 100 100 100 100
92 26 70 88 46 88 100 95 39 100 98 87 75 87 56 18 10 81 100 100 100 100 100 100 100 100 100 100 76 96 90 98
100 100 100 100 99 49 11 50 64 100 100 100 100 100 100 100 84 23 60 93 94 94 76 100 100 90 100 100 100 100 100 95
100 100 100 100 100 100 100 100 100 100 100 100 100 100 9 44 100 100 100 100 95 100 100 100 74 74 42 61 99 100 100 100
100 100 100 100 100 100 78 27 24 59 43 84 80 74 41 100 97 90 89 80 57 97 100 100 100 12 24 60 96 100 100 99
100 64 100 100 99 96 95 76 72 79 100 95 100 100 45 13 83 77 50 22 100 100 98 100 100 100 92 87 80 100 100 100
77 9 22 100 34 90 72 6 5 5 5 6 32 31 64 87 68 33 72 99 100 100 98 99 100 100 100 100 100 100 100 100
4 5 5 5 74 98 31 6 42 99 100 100 16 44 100 100 17 84 100 100 100 100 100 100 100 100 68 100 100 100 100 100
0 0 4 4 17 5 5 85 100 100 100 100 99 100 95 100 95 100 100 76 79 100 100 100 100 100 100 100 100 100 100 100
0 5 2 0 78 58 9 73 100 100 100 100 99 97 100 100 100 100 100 100 100 100 100 100 100 100 100 100 100 100 100 100
98 19 0 0 0 85 5 5 100 100 100 100 100 100 100 100 100 100 100 100 100 100 100 100 100 100 100 100 100 100 100 100
46 62 5 5 4 0 2 7 15 100 100 100 100 100 100 100 100 100 100 100 100 100 100 100 100 100 100 100 100 100 100 99
25 5 18 39 4 0 0 0 14 82 100 100 100 80 100 100 100 100 100 100 100 100 100 100 100 100 100 100 100 100 100 100
88 9 21 100 59 4 0 0 0 5 1 28 58 45 49 57 88 100 100 100 100 100 100 100 100 100 100 100 100 100 100 100
71 0 3 0 58 8 0 0 0 0 0 0 0 0 20 33 62 100 99 100 100 100 100 100 100 100 100 100 100 100 100 100
4 0 0 0 0 0 2 4 0 0 0 0 0 0 0 0 6 21 69 96 100 64 27 19 46 76 70 100 100 96 66 66
2 0 0 0 0 1 0 0 0 0 0 0 0 0 4 2 2 6 39 33 4 5 5 6 24 46 17 13 6 17 20 64

GFSFLT1_prec_cloud_042.txt.gz
Cloud_Cover
73 100 100 100 100 100 100 100 100 100 100 100 100 100 100 100 74 99 99 100 100 100 98 100 100 100 100 100 100 100 100 100
69 49 100 100 100 100 100 100 100 100 100 100 100 100 94 100 100 100 100 100 80 49 100 81 100 100 100 100 100 100 100 100
100 72 100 100 100 100 100 100 100 100 100 100 100 100 100 100 100 100 100 100 100 98 91 100 100 100 100 100 100 100 100 100
18 100 98 100 100 100 100 100 100 100 100 100 100 100 100 84 92 100 100 26 97 84 100 98 100 100 100 100 100 100 100 100
5 30 52 92 100 100 100 100 100 100 100 100 100 100 100 99 91 100 94 100 100 80 83 58 89 51 28 86 100 77 87 100
3 3 69 100 100 100 100 100 100 100 98 5 13 93 9 99 10 10 100 99 100 100 100 100 100 100 100 90 100 96 60 11
1 5 16 100 100 100 100 46 15 6 16 78 10 5 5 19 87 100 100 100 78 81 100 100 98 100 99 90 81 52 34 51
95 38 5 9 100 94 26 68 15 5 15 5 11 88 89 97 100 100 100 100 100 100 100 100 100 100 100 97 100 68 99 100
44 17 6 9 67 40 33 100 100 11 2 6 9 10 62 54 83 80 61 100 100 100 100 100 100 100 100 100 100 96 100 100
98 47 25 16 4 5 5 4 5 99 78 94 86 100 100 81 98 100 100 100 100 90 100 100 100 100 100 100 100 100 100 100
1 2 76 15 5 3 2 5 90 76 66 88 97 99 100 100 100 100 100 100 95 100 100 100 100 100 100 100 100 100 100 100
0 7 45 0 53 72 47 39 43 43 100 100 100 100 100 100 100 100 100 100 100 100 100 100 100 100 100 100 100 100 100 100
13 3 1 0 1 59 5 100 100 80 38 100 100 100 100 100 100 100 100 100 100 100 100 100 100 100 100 100 100 100 100 100
6 47 0 0 1 5 0 20 98 29 36 94 100 100 100 100 100 100 100 100 100 100 100 100 100 100 100 100 100 100 100 100
14 95 35 2 0 0 0 0 3 4 58 100 100 100 100 100 100 100 100 100 100 100 100 100 100 100 100 100 100 100 100 100
36 100 9 44 14 4 0 0 4 1 7 96 100 100 100 100 100 100 100 100 100 100 100 100 100 100 100 100 100 100 100 100
90 21 92 75 94 40 0 0 16 2 5 16 100 100 100 100 100 100 100 100 100 100 100 100 100 100 100 100 100 100 100 100
98 9 0 0 0 0 0 0 20 79 97 100 100 100 100 100 100 100 100 100 100 100 100 100 100 100 100 100 100 100 100 100
100 92 4 4 5 2 0 0 0 28 100 100 100 100 100 100 98 86 52 12 48 100 99 99 100 100 100 97 78 100 98 73